| time (UTC) | temp F | wind direction | speed MPH | gust MPH | rain 1hr in | rain 24hr in | rain mn in | humidity % | barometer mb |
| 20260504173010 | 83 | 348 | 3.0 | 10.0 | 0.00 | 0.00 | 0.00 | 40 | 1017.3 |
| 20260504172507 | 83 | 63 | 3.0 | 11.0 | 0.00 | 0.00 | 0.00 | 41 | 1017.5 |
| 20260504172008 | 83 | 112 | 5.0 | 11.0 | 0.00 | 0.00 | 0.00 | 41 | 1017.5 |
| 20260504171533 | 83 | 78 | 4.0 | 9.0 | 0.00 | 0.00 | 0.00 | 42 | 1017.4 |
| 20260504171004 | 83 | 108 | 2.0 | 9.0 | 0.00 | 0.00 | 0.00 | 42 | 1017.5 |
| 20260504170509 | 83 | 60 | 2.0 | 9.0 | 0.00 | 0.00 | 0.00 | 43 | 1017.6 |
| 20260504151005 | 80 | 97 | 6.0 | 14.0 | 0.00 | 0.00 | 0.00 | 50 | 1018.4 |
| 20260504150503 | 79 | 64 | 9.0 | 14.0 | 0.00 | 0.00 | 0.00 | 52 | 1018.5 |
| 20260504141006 | 77 | 49 | 6.0 | 15.0 | 0.00 | 0.00 | 0.00 | 57 | 1018.4 |
| 20260504140503 | 76 | 76 | 4.0 | 17.0 | 0.00 | 0.00 | 0.00 | 59 | 1018.5 |
| 20260504130506 | 69 | 84 | 4.0 | 14.0 | 0.00 | 0.00 | 0.00 | 72 | 1018.0 |
| 20260504110508 | 58 | 61 | 2.0 | 5.0 | 0.00 | 0.00 | 0.00 | 88 | 1017.4 |
| 20260504100503 | 57 | 40 | 1.0 | 3.0 | 0.00 | 0.00 | 0.00 | 88 | 1017.1 |
| 20260504082007 | 59 | 31 | 1.0 | 3.0 | 0.00 | 0.00 | 0.00 | 86 | 1017.3 |
| 20260504081517 | 59 | 20 | 1.0 | 3.0 | 0.00 | 0.00 | 0.00 | 86 | 1017.3 |
| 20260504081009 | 59 | 23 | 1.0 | 3.0 | 0.00 | 0.00 | 0.00 | 86 | 1017.3 |
| 20260504080506 | 59 | 28 | 1.0 | 3.0 | 0.00 | 0.00 | 0.00 | 86 | 1017.3 |
| 20260504050513 | 65 | 44 | 1.0 | 3.0 | 0.00 | 0.00 | 0.00 | 77 | 1017.7 |
| 20260504050020 | 65 | 65 | 1.0 | 3.0 | 0.00 | 0.00 | 0.00 | 77 | 1017.8 |
| 20260504045507 | 66 | 59 | 0.0 | 2.0 | 0.00 | 0.00 | 0.00 | 77 | 1018.2 |
| 20260504045011 | 66 | 34 | 1.0 | 3.0 | 0.00 | 0.00 | 0.00 | 76 | 1018.3 |
| 20260504044517 | 66 | 48 | 1.0 | 3.0 | 0.00 | 0.00 | 0.00 | 76 | 1018.3 |
| 20260504044010 | 66 | 36 | 1.0 | 3.0 | 0.00 | 0.00 | 0.00 | 76 | 1018.1 |
| 20260504043507 | 66 | 16 | 1.0 | 3.0 | 0.00 | 0.00 | 0.00 | 75 | 1018.5 |
| 20260504043024 | 67 | 51 | 1.0 | 3.0 | 0.00 | 0.00 | 0.00 | 73 | 1018.5 |
| 20260504042508 | 67 | 80 | 1.0 | 3.0 | 0.00 | 0.00 | 0.00 | 73 | 1018.5 |
| 20260504042008 | 67 | 101 | 0.0 | 3.0 | 0.00 | 0.00 | 0.00 | 73 | 1018.3 |
| 20260504041523 | 67 | 78 | 0.0 | 4.0 | 0.00 | 0.00 | 0.00 | 73 | 1018.7 |
| 20260504041010 | 68 | 97 | 0.0 | 4.0 | 0.00 | 0.00 | 0.00 | 73 | 1018.7 |
| 20260504040506 | 68 | 100 | 0.0 | 7.0 | 0.00 | 0.00 | 0.00 | 72 | 1018.7 |
| 20260504040038 | 68 | 70 | 1.0 | 7.0 | 0.00 | 0.00 | 0.00 | 71 | 1018.5 |
| 20260504035512 | 68 | 71 | 1.0 | 4.0 | 0.00 | 0.00 | 0.00 | 71 | 1018.8 |
| 20260504035010 | 68 | 107 | 1.0 | 6.0 | 0.00 | 0.00 | 0.00 | 71 | 1018.7 |
| 20260504034524 | 69 | 82 | 1.0 | 7.0 | 0.00 | 0.00 | 0.00 | 70 | 1018.8 |
| 20260504034008 | 69 | 55 | 1.0 | 7.0 | 0.00 | 0.00 | 0.00 | 70 | 1018.6 |
| 20260504033508 | 69 | 85 | 1.0 | 4.0 | 0.00 | 0.00 | 0.00 | 70 | 1018.6 |
| 20260504033023 | 69 | 91 | 0.0 | 7.0 | 0.00 | 0.00 | 0.00 | 70 | 1018.6 |
| 20260504032507 | 69 | 66 | 1.0 | 10.0 | 0.00 | 0.00 | 0.00 | 70 | 1018.7 |
| 20260504032013 | 69 | 101 | 3.0 | 11.0 | 0.00 | 0.00 | 0.00 | 69 | 1018.7 |
| 20260504031524 | 70 | 52 | 2.0 | 11.0 | 0.00 | 0.00 | 0.00 | 69 | 1018.7 |
| 20260504031008 | 70 | 73 | 2.0 | 11.0 | 0.00 | 0.00 | 0.00 | 69 | 1018.6 |
| 20260504030510 | 70 | 61 | 3.0 | 10.0 | 0.00 | 0.00 | 0.00 | 68 | 1018.4 |
| 20260504030025 | 70 | 75 | 1.0 | 8.0 | 0.00 | 0.00 | 0.00 | 69 | 1018.4 |
| 20260504025506 | 70 | 59 | 1.0 | 9.0 | 0.00 | 0.00 | 0.00 | 69 | 1018.5 |
| 20260504025010 | 70 | 128 | 3.0 | 9.0 | 0.00 | 0.00 | 0.00 | 68 | 1018.4 |
| 20260504024524 | 69 | 80 | 4.0 | 10.0 | 0.00 | 0.00 | 0.00 | 69 | 1018.5 |
| 20260504024013 | 69 | 100 | 2.0 | 10.0 | 0.00 | 0.00 | 0.00 | 69 | 1018.3 |
| 20260504023509 | 68 | 86 | 2.0 | 10.0 | 0.00 | 0.00 | 0.00 | 70 | 1018.3 |
| 20260504023024 | 68 | 90 | 2.0 | 10.0 | 0.00 | 0.00 | 0.00 | 71 | 1018.2 |
| 20260504022511 | 68 | 69 | 2.0 | 8.0 | 0.00 | 0.00 | 0.00 | 73 | 1018.2 |
| 20260504022008 | 67 | 123 | 1.0 | 3.0 | 0.00 | 0.00 | 0.00 | 73 | 1018.1 |
| 20260504021523 | 68 | 59 | 1.0 | 3.0 | 0.00 | 0.00 | 0.00 | 73 | 1018.1 |
| 20260504021009 | 68 | 92 | 0.0 | 4.0 | 0.00 | 0.00 | 0.00 | 73 | 1018.0 |
| 20260504020508 | 68 | 59 | 0.0 | 4.0 | 0.00 | 0.00 | 0.00 | 73 | 1017.9 |
| 20260504020019 | 68 | 40 | 1.0 | 3.0 | 0.00 | 0.00 | 0.00 | 72 | 1017.9 |
| 20260504015508 | 68 | 35 | 0.0 | 3.0 | 0.00 | 0.00 | 0.00 | 72 | 1017.8 |
| 20260504015009 | 69 | 28 | 1.0 | 3.0 | 0.00 | 0.00 | 0.00 | 71 | 1017.8 |
| 20260504014528 | 69 | 36 | 1.0 | 4.0 | 0.00 | 0.00 | 0.00 | 71 | 1017.8 |
| 20260504014008 | 69 | 28 | 1.0 | 4.0 | 0.00 | 0.00 | 0.00 | 71 | 1017.7 |
| 20260504013509 | 69 | 40 | 1.0 | 4.0 | 0.00 | 0.00 | 0.00 | 71 | 1017.6 |
| 20260504013027 | 69 | 5 | 1.0 | 4.0 | 0.00 | 0.00 | 0.00 | 70 | 1017.6 |
| 20260504012510 | 69 | 17 | 2.0 | 4.0 | 0.00 | 0.00 | 0.00 | 70 | 1017.5 |
| 20260504012013 | 70 | 360 | 1.0 | 4.0 | 0.00 | 0.00 | 0.00 | 69 | 1017.5 |
| 20260504011528 | 70 | 352 | 2.0 | 4.0 | 0.00 | 0.00 | 0.00 | 68 | 1017.3 |
| 20260504011010 | 70 | 344 | 1.0 | 3.0 | 0.00 | 0.00 | 0.00 | 69 | 1017.2 |
| 20260504010507 | 70 | 13 | 1.0 | 3.0 | 0.00 | 0.00 | 0.00 | 69 | 1017.0 |
| 20260504010025 | 70 | 14 | 1.0 | 4.0 | 0.00 | 0.00 | 0.00 | 68 | 1017.0 |
| 20260504005509 | 70 | 11 | 1.0 | 4.0 | 0.00 | 0.00 | 0.00 | 68 | 1016.9 |
| 20260504005013 | 71 | 360 | 1.0 | 4.0 | 0.00 | 0.00 | 0.00 | 67 | 1016.8 |
| 20260504004539 | 71 | 12 | 1.0 | 4.0 | 0.00 | 0.00 | 0.00 | 67 | 1016.8 |
| 20260504004002 | 71 | 5 | 2.0 | 5.0 | 0.00 | 0.00 | 0.00 | 66 | 1016.8 |
| 20260504003502 | 71 | 340 | 1.0 | 5.0 | 0.00 | 0.00 | 0.00 | 66 | 1016.7 |
| 20260504003008 | 71 | 352 | 2.0 | 4.0 | 0.00 | 0.00 | 0.00 | 65 | 1016.7 |
| 20260504002504 | 72 | 338 | 2.0 | 5.0 | 0.00 | 0.00 | 0.00 | 65 | 1016.6 |
| 20260504002002 | 72 | 12 | 3.0 | 8.0 | 0.00 | 0.00 | 0.00 | 64 | 1016.5 |
| 20260504001504 | 72 | 22 | 3.0 | 8.0 | 0.00 | 0.00 | 0.00 | 64 | 1016.6 |
| 20260504001003 | 73 | 360 | 2.0 | 8.0 | 0.00 | 0.00 | 0.00 | 63 | 1016.7 |
| 20260504000504 | 73 | 344 | 3.0 | 8.0 | 0.00 | 0.00 | 0.00 | 62 | 1016.6 |
| 20260504000001 | 73 | 346 | 2.0 | 9.0 | 0.00 | 0.00 | 0.00 | 62 | 1016.7 |
| 20260503235503 | 73 | 342 | 5.0 | 9.0 | 0.00 | 0.00 | 0.00 | 61 | 1016.6 |
| 20260503235005 | 74 | 327 | 4.0 | 10.0 | 0.00 | 0.00 | 0.00 | 60 | 1016.7 |
| 20260503234506 | 74 | 333 | 5.0 | 10.0 | 0.00 | 0.00 | 0.00 | 61 | 1016.6 |
| 20260503234003 | 74 | 340 | 4.0 | 11.0 | 0.00 | 0.00 | 0.00 | 60 | 1016.5 |
| 20260503233503 | 74 | 315 | 2.0 | 11.0 | 0.00 | 0.00 | 0.00 | 60 | 1016.6 |
| 20260503233007 | 75 | 301 | 5.0 | 11.0 | 0.00 | 0.00 | 0.00 | 60 | 1016.6 |
| 20260503232501 | 75 | 320 | 5.0 | 11.0 | 0.00 | 0.00 | 0.00 | 59 | 1016.6 |
| 20260503232001 | 75 | 302 | 4.0 | 12.0 | 0.00 | 0.00 | 0.00 | 59 | 1016.4 |
| 20260503231508 | 75 | 338 | 5.0 | 12.0 | 0.00 | 0.00 | 0.00 | 57 | 1016.4 |
| 20260503231002 | 76 | 350 | 6.0 | 12.0 | 0.00 | 0.00 | 0.00 | 58 | 1016.4 |
| 20260503230504 | 76 | 340 | 5.0 | 12.0 | 0.00 | 0.00 | 0.00 | 56 | 1016.5 |
| 20260503230008 | 76 | 311 | 9.0 | 14.0 | 0.00 | 0.00 | 0.00 | 57 | 1016.4 |
| 20260503225501 | 77 | 315 | 8.0 | 14.0 | 0.00 | 0.00 | 0.00 | 56 | 1016.4 |
| 20260503225001 | 77 | 279 | 8.0 | 13.0 | 0.00 | 0.00 | 0.00 | 56 | 1016.3 |
| 20260503224508 | 78 | 333 | 9.0 | 13.0 | 0.00 | 0.00 | 0.00 | 54 | 1016.2 |
| 20260503224002 | 78 | 304 | 7.0 | 12.0 | 0.00 | 0.00 | 0.00 | 55 | 1016.2 |
| 20260503223502 | 79 | 300 | 6.0 | 14.0 | 0.00 | 0.00 | 0.00 | 55 | 1016.3 |
| 20260503223002 | 80 | 286 | 7.0 | 14.0 | 0.00 | 0.00 | 0.00 | 53 | 1016.2 |
| 20260503222505 | 80 | 296 | 3.0 | 13.0 | 0.00 | 0.00 | 0.00 | 53 | 1016.2 |
| 20260503222004 | 80 | 292 | 6.0 | 14.0 | 0.00 | 0.00 | 0.00 | 53 | 1016.2 |
| 20260503221501 | 80 | 306 | 6.0 | 14.0 | 0.00 | 0.00 | 0.00 | 54 | 1016.4 |
| 20260503221004 | 80 | 304 | 8.0 | 14.0 | 0.00 | 0.00 | 0.00 | 51 | 1016.3 |
| 20260503220504 | 81 | 23 | 5.0 | 9.0 | 0.00 | 0.00 | 0.00 | 49 | 1016.5 |
| 20260503220001 | 82 | 293 | 5.0 | 9.0 | 0.00 | 0.00 | 0.00 | 48 | 1016.4 |
| 20260503215504 | 82 | 24 | 3.0 | 8.0 | 0.00 | 0.00 | 0.00 | 43 | 1016.4 |
| 20260503215003 | 82 | 351 | 3.0 | 9.0 | 0.00 | 0.00 | 0.00 | 42 | 1016.3 |
| 20260503214513 | 82 | 86 | 3.0 | 11.0 | 0.00 | 0.00 | 0.00 | 41 | 1016.2 |
| 20260503214000 | 82 | 22 | 4.0 | 12.0 | 0.00 | 0.00 | 0.00 | 44 | 1016.3 |
| 20260503213503 | 82 | 5 | 6.0 | 12.0 | 0.00 | 0.00 | 0.00 | 43 | 1016.2 |
| 20260503213012 | 82 | 35 | 3.0 | 14.0 | 0.00 | 0.00 | 0.00 | 44 | 1016.2 |
| 20260503212503 | 82 | 51 | 6.0 | 14.0 | 0.00 | 0.00 | 0.00 | 45 | 1016.3 |
| 20260503212005 | 82 | 308 | 8.0 | 11.0 | 0.00 | 0.00 | 0.00 | 46 | 1016.3 |
| 20260503211508 | 82 | 26 | 3.0 | 8.0 | 0.00 | 0.00 | 0.00 | 45 | 1016.2 |
| 20260503211007 | 82 | 192 | 2.0 | 8.0 | 0.00 | 0.00 | 0.00 | 45 | 1016.2 |
| 20260503210501 | 82 | 133 | 3.0 | 10.0 | 0.00 | 0.00 | 0.00 | 45 | 1016.2 |
| 20260503210007 | 82 | 352 | 5.0 | 10.0 | 0.00 | 0.00 | 0.00 | 44 | 1016.3 |
| 20260503205505 | 81 | 61 | 3.0 | 10.0 | 0.00 | 0.00 | 0.00 | 46 | 1016.3 |
| 20260503205007 | 81 | 59 | 5.0 | 10.0 | 0.00 | 0.00 | 0.00 | 44 | 1016.4 |
| 20260503204506 | 81 | 49 | 3.0 | 11.0 | 0.00 | 0.00 | 0.00 | 43 | 1016.5 |
| 20260503204000 | 82 | 101 | 2.0 | 12.0 | 0.00 | 0.00 | 0.00 | 44 | 1016.5 |
| 20260503203505 | 82 | 31 | 7.0 | 12.0 | 0.00 | 0.00 | 0.00 | 45 | 1016.6 |
| 20260503203001 | 82 | 34 | 5.0 | 11.0 | 0.00 | 0.00 | 0.00 | 47 | 1016.6 |
| 20260503202504 | 82 | 137 | 2.0 | 9.0 | 0.00 | 0.00 | 0.00 | 48 | 1016.7 |
| 20260503202007 | 81 | 65 | 2.0 | 11.0 | 0.00 | 0.00 | 0.00 | 47 | 1016.6 |
| 20260503201504 | 81 | 40 | 3.0 | 11.0 | 0.00 | 0.00 | 0.00 | 48 | 1016.9 |
| 20260503201004 | 81 | 28 | 3.0 | 11.0 | 0.00 | 0.00 | 0.00 | 47 | 1017.0 |
| 20260503200503 | 81 | 48 | 4.0 | 11.0 | 0.00 | 0.00 | 0.00 | 49 | 1016.9 |
| 20260503200008 | 81 | 121 | 4.0 | 8.0 | 0.00 | 0.00 | 0.00 | 49 | 1016.9 |
| 20260503195504 | 80 | 157 | 3.0 | 10.0 | 0.00 | 0.00 | 0.00 | 53 | 1017.1 |
| 20260503195005 | 80 | 129 | 5.0 | 11.0 | 0.00 | 0.00 | 0.00 | 47 | 1017.1 |
| 20260503194513 | 81 | 91 | 3.0 | 11.0 | 0.00 | 0.00 | 0.00 | 47 | 1017.1 |
| 20260503194004 | 80 | 19 | 3.0 | 9.0 | 0.00 | 0.00 | 0.00 | 48 | 1017.2 |
| 20260503193504 | 80 | 360 | 2.0 | 10.0 | 0.00 | 0.00 | 0.00 | 50 | 1017.3 |
| 20260503193024 | 80 | 89 | 4.0 | 11.0 | 0.00 | 0.00 | 0.00 | 49 | 1017.4 |
| 20260503192503 | 81 | 108 | 5.0 | 14.0 | 0.00 | 0.01 | 0.00 | 49 | 1017.5 |
| 20260503192003 | 81 | 108 | 7.0 | 14.0 | 0.00 | 0.03 | 0.00 | 47 | 1017.5 |
| 20260503191505 | 81 | 71 | 3.0 | 11.0 | 0.00 | 0.05 | 0.00 | 51 | 1017.6 |
| 20260503191004 | 81 | 126 | 3.0 | 11.0 | 0.00 | 0.07 | 0.00 | 47 | 1017.8 |
| 20260503190506 | 81 | 42 | 1.0 | 12.0 | 0.00 | 0.08 | 0.00 | 51 | 1017.9 |
| 20260503190004 | 81 | 352 | 5.0 | 12.0 | 0.00 | 0.10 | 0.00 | 49 | 1017.9 |
| 20260503185504 | 81 | 271 | 2.0 | 11.0 | 0.00 | 0.11 | 0.00 | 51 | 1017.9 |
| 20260503185008 | 81 | 53 | 5.0 | 11.0 | 0.00 | 0.12 | 0.00 | 49 | 1018.1 |
| 20260503184517 | 81 | 109 | 4.0 | 10.0 | 0.00 | 0.13 | 0.00 | 51 | 1018.1 |
| 20260503184006 | 81 | 40 | 3.0 | 9.0 | 0.00 | 0.14 | 0.00 | 49 | 1018.1 |
| 20260503183509 | 81 | 133 | 4.0 | 12.0 | 0.00 | 0.15 | 0.00 | 49 | 1018.3 |
| 20260503183011 | 81 | 25 | 3.0 | 14.0 | 0.00 | 0.15 | 0.00 | 52 | 1018.3 |
| 20260503182503 | 81 | 32 | 7.0 | 14.0 | 0.00 | 0.16 | 0.00 | 50 | 1018.4 |
| 20260503182006 | 81 | 28 | 5.0 | 14.0 | 0.00 | 0.16 | 0.00 | 52 | 1018.4 |
| 20260503181506 | 81 | 61 | 4.0 | 12.0 | 0.00 | 0.16 | 0.00 | 50 | 1018.4 |
| 20260503181008 | 81 | 264 | 1.0 | 12.0 | 0.00 | 0.18 | 0.00 | 50 | 1018.5 |
| 20260503180505 | 80 | 57 | 7.0 | 12.0 | 0.00 | 0.27 | 0.00 | 53 | 1018.5 |
| 20260503180015 | 80 | 32 | 4.0 | 10.0 | 0.00 | 0.32 | 0.00 | 52 | 1018.6 |
| 20260503175506 | 80 | 133 | 1.0 | 12.0 | 0.00 | 0.43 | 0.00 | 50 | 1018.5 |
| 20260503175003 | 80 | 72 | 6.0 | 12.0 | 0.00 | 0.52 | 0.00 | 50 | 1018.6 |
| 20260503174509 | 80 | 326 | 4.0 | 10.0 | 0.00 | 0.52 | 0.00 | 53 | 1018.6 |
| 20260503174004 | 79 | 53 | 5.0 | 11.0 | 0.00 | 0.52 | 0.00 | 54 | 1018.7 |
| 20260503173504 | 79 | 80 | 3.0 | 12.0 | 0.00 | 0.52 | 0.00 | 50 | 1018.7 |